Flag for United Kingdom Weather past 2 weeks in Northampton, England, United Kingdom

Now
52 °F

Passing clouds.


Feels Like: 51 °F
Forecast: N/A
Wind: 3 mph from North

Location: Cranfield

Current Time: Mar 27, 2015 at 5:29:56 PM

Latest Report: Mar 27, 2015 at 4:50 PM


Visibility: N/A

Pressure: 30.09 "Hg

Humidity: 54%

Dew point: 36 °F

Location of NorthamptonLocation

Historic Weather in Northampton — Graph

°F

Northampton temperature yesterday

Maximum temperature yesterday: 54 °F (at 1:50 PM)
Minimum temperature yesterday: 39 °F (at 7:20 AM)
Average temperature yesterday: 48 °F

Past Weeks' High & Low Weather Summary

 TemperatureHumidityPressure
High55 °F (Mar 12, 4:20 PM)100% (Mar 17, 7:50 AM)30.54 "Hg (Mar 17, 7:50 AM)
Low32 °F (Mar 23, 3:20 PM)30% (Mar 12, 4:50 PM)29.47 "Hg (Mar 26, 8:20 AM)
Average45 °F74%30.18 "Hg
* Reported Mar 12 4:20 PM — Mar 27 4:20 PM, Northampton, Weather by CustomWeather, © 2015

Note: Actual official high and low records may vary slightly from our data, if they occured in-between our weather recording intervals... More about our weather records

Advertising

Northampton weather history for previous 24 hours

 ConditionsComfort  
Time TempWeatherWind HumidityBarometerVisibility
4:20 PM
Fri, Mar 27
50 °FPassing clouds.5 mph54%30.09 "HgN/A
3:50 PM50 °FPassing clouds.8 mph54%30.09 "HgN/A
3:20 PM52 °FPassing clouds.8 mph50%30.09 "HgN/A
2:50 PM50 °FPassing clouds.12 mph54%30.09 "HgN/A
2:20 PM50 °FPassing clouds.7 mph50%30.09 "HgN/A
1:50 PM52 °FPassing clouds.13 mph50%30.09 "HgN/A
1:20 PM50 °FPassing clouds.13 mph54%30.09 "HgN/A
12:50 PM48 °FScattered clouds.14 mph58%30.12 "HgN/A
12:20 PM48 °FScattered clouds.13 mph58%30.09 "HgN/A
11:50 AM50 °FPassing clouds.13 mph54%30.09 "HgN/A
11:20 AM50 °FPassing clouds.12 mph54%30.09 "HgN/A
10:50 AM50 °FPassing clouds.9 mph58%30.09 "HgN/A
10:20 AM46 °FPassing clouds.9 mph66%30.12 "HgN/A
9:50 AM45 °FSunny.8 mph71%30.09 "Hg10 mi
9:20 AM43 °FPassing clouds.8 mph76%30.09 "HgN/A
8:50 AM43 °FSunny.7 mph71%30.09 "Hg10 mi
8:20 AM41 °FSunny.8 mph76%30.09 "Hg10 mi
7:50 AM39 °FSunny.7 mph81%30.09 "Hg10 mi
7:20 AM37 °FSunny.10 mph87%30.09 "Hg10 mi
Weather by CustomWeather, © 2015

See weather overviewHow to use our weather pages